Flag for Germany Weather past 2 weeks in Titisee-Neustadt, Baden-Württemberg, Germany

Now
41 °F

Fog.


Feels Like: 41 °F
Forecast: 39 / 49 °F
Wind: 1 mph from North

Location: Freiburg

Current Time: Sep 24, 2014 at 4:45:44 AM

Latest Report: Sep 24, 2014 at 4:00 AM


Visibility: 4 mi

Pressure: 30.04 "Hg

Humidity: 98%

Dew point: 41 °F

Location of Titisee-NeustadtLocation

Historic Weather in Titisee-Neustadt — Graph

°F

Titisee-Neustadt temperature yesterday

Maximum temperature yesterday: 65 °F (at 4:00 PM)
Minimum temperature yesterday: 37 °F (at 4:00 AM)
Average temperature yesterday: 51 °F

Past Weeks' High & Low Weather Summary

 TemperatureHumidityPressure
High76 °F (Sep 16, 4:00 PM)100% (Sep 15, 7:00 AM)30.23 "Hg (Sep 15, 7:00 AM)
Low37 °F (Sep 23, 4:00 AM)45% (Sep 23, 4:00 PM)29.82 "Hg (Sep 17, 4:00 PM)
Average60 °F85%30.02 "Hg
* Reported Sep 9 4:00 AM — Sep 24 4:00 AM, Titisee-Neustadt, Weather by CustomWeather, © 2014

Note: Actual official high and low records may vary slightly from our data, if they occured in-between our weather recording intervals... More about our weather records

Advertising

Titisee-Neustadt weather history for previous 24 hours

 ConditionsComfort  
Time TempWeatherWind HumidityBarometerVisibility
4:00 AM
Sep 24
41 °FFog.1 mph98%30.04 "Hg4 mi
3:00 AM41 °FPassing clouds.1 mph96%30.06 "Hg0 mi
1:00 AM43 °FClear.1 mph92%30.08 "Hg8 mi
12:00 AM45 °FClear.1 mph96%30.08 "Hg6 mi
10:00 PM
Sep 23
48 °FClear.2 mph95%30.08 "Hg10 mi
9:00 PM49 °FClear.1 mph89%30.08 "Hg13 mi
8:00 PM56 °FClear.2 mph74%30.04 "Hg18 mi
7:00 PM59 °FSunny.5 mph70%30.02 "Hg19 mi
6:00 PM64 °FSunny.3 mph53%30.00 "Hg19 mi
4:00 PM65 °FSunny.5 mph45%30.03 "Hg19 mi
3:00 PM64 °FSunny.5 mph51%30.05 "Hg12 mi
2:00 PM62 °FSunny.5 mph59%30.09 "Hg19 mi
1:00 PM58 °FPassing clouds.5 mph73%30.12 "Hg14 mi
12:00 PM54 °FPassing clouds.3 mph74%30.16 "Hg12 mi
11:00 AM51 °FScattered clouds.2 mph80%30.21 "Hg12 mi
10:00 AM47 °FSunny.2 mph85%30.23 "Hg13 mi
9:00 AM44 °FPassing clouds.1 mph91%30.22 "Hg9 mi
7:00 AM37 °FPassing clouds.1 mph98%30.22 "Hg6 mi
6:00 AM39 °FFog.1 mph100%30.22 "Hg3 mi
4:00 AM37 °FClear.1 mph98%30.22 "Hg1 mi
Weather by CustomWeather, © 2014

See weather overviewHow to use our weather pages